Погода в Руане

Франция     49°26′29″N   1°05′06″E
темп.,
°C
ветер,
м/с
пор.,
м/с
влажн.,
%
обл.,
%
осадки,
мм/ч
давл.,
гПа
погр.,
м
13 мая, чт
чт1323:00+8вюв411945 0.0 1007248
02:00+7з4997100 2.3 1008471
05:00+7юз51094100 1.9 1007499
08:00+7ююз4992100 1.9 1007431
11:00+10ююз4778100 0.0 1007867
14:00+13юз575991 0.2 10061744
17:00+15юз365094 0.1 10052176
20:00+11з4677100 0.6 1005281
14 мая, пт
пт1423:00+8ю238486 0.0 100764
02:00+7ююв379779 0.5 1006258
05:00+7ююв3799100 0.4 1006271
08:00+8ю3696100 2.1 1006529
11:00+9с119386 0.8 1008299
14:00+13ссз568093 2.3 10081214
17:00+13сз577213 1.3 10091213
20:00+11зсз3576100 1.6 1009548
15 мая, сб
сб1523:00+7зюз2289100 0.0 101011
02:00+7ю239197 0.0 100853
05:00+8ююз389585 1.4 1006344
08:00+7ююв51294100 2.4 1004775
11:00+9юз489693 0.4 1004595
14:00+14з8116736 0.8 10041633
17:00+14з812614 0.9 10041620
20:00+13зюз510745 0.9 10051079
16 мая, вс
вс1623:00+8юз3109590 0.3 1006217
02:00+7юз4109868 0.6 1005330
05:00+8юз5119671 0.2 1005475
08:00+8ююз5119458 0.2 1004510
11:00+12юз8117434 0.4 10041270
14:00+14зюз8117094 1.5 10031823
17:00+13зюз7128281 1.9 10021368
20:00+11зюз7138993 4.2 1002982
17 мая, пн
пн1723:00+9юз7159558 1.1 1003788
02:00+9юз8169064 1.3 1003943
05:00+9юз91689100 0.1 10031179
08:00+9зюз91592100 0.6 10041121
11:00+10зюз91493100 1.1 10061029
14:00+14з1014747 2.1 10071660
17:00+13з91377100 0.9 10081401
20:00+11з71279100 1.3 10091072